PRIVATE WETTERSTATION BILLIGHEIM-ALLFELD                       ZURCK
Wetterdaten: Samstag, 12.07.2014
Datum Zeit Temp. A. Temp. A. min Temp. A. max Feuchte A. Luftdruck Regen Wind Richtung Richtung Sonnenschein ET Solar Taupunkt Windchill Windben Empfang
12.07.2014 00:00 16,1 C 16,0 C 16,1 C 87 % 1011,3 hPa 0,0 l/m 0,0 km/h (0 Bft) SO 135 0 min 0,000 mm 0 W/m 13,9 C 16,1 C 1,6 km/h (1 Bft) 100 %
12.07.2014 00:10 16,0 C 16,0 C 16,1 C 87 % 1011,3 hPa 0,0 l/m 0,0 km/h (0 Bft) SO 135 0 min 0,000 mm 0 W/m 13,8 C 16,0 C 1,6 km/h (1 Bft) 100 %
12.07.2014 00:20 16,0 C 16,0 C 16,0 C 87 % 1011,3 hPa 0,0 l/m 0,0 km/h (0 Bft) SO 135 0 min 0,000 mm 0 W/m 13,8 C 16,0 C 1,6 km/h (1 Bft) 100 %
12.07.2014 00:30 16,0 C 15,9 C 16,0 C 87 % 1011,5 hPa 0,0 l/m 0,0 km/h (0 Bft) SO 135 0 min 0,000 mm 0 W/m 13,8 C 16,0 C 1,6 km/h (1 Bft) 100 %
12.07.2014 00:40 16,0 C 15,9 C 16,0 C 87 % 1011,6 hPa 0,0 l/m 0,0 km/h (0 Bft) N 0 0 min 0,000 mm 0 W/m 13,8 C 16,0 C 0,0 km/h (0 Bft) 100 %
12.07.2014 00:50 15,9 C 15,9 C 16,0 C 87 % 1011,5 hPa 0,0 l/m 0,0 km/h (0 Bft) N 0 0 min 0,000 mm 0 W/m 13,7 C 15,9 C 0,0 km/h (0 Bft) 100 %
12.07.2014 01:00 15,9 C 15,9 C 16,0 C 87 % 1011,5 hPa 0,0 l/m 0,0 km/h (0 Bft) SO 135 0 min 0,000 mm 0 W/m 13,7 C 15,9 C 1,6 km/h (1 Bft) 99 %
12.07.2014 01:10 16,0 C 15,9 C 16,0 C 87 % 1011,5 hPa 0,0 l/m 0,0 km/h (0 Bft) SO 135 0 min 0,000 mm 0 W/m 13,8 C 16,0 C 3,2 km/h (1 Bft) 100 %
12.07.2014 01:20 16,0 C 15,9 C 16,0 C 87 % 1011,4 hPa 0,0 l/m 0,0 km/h (0 Bft) O-SO 112 0 min 0,000 mm 0 W/m 13,8 C 16,0 C 1,6 km/h (1 Bft) 100 %
12.07.2014 01:30 16,0 C 16,0 C 16,0 C 87 % 1011,3 hPa 0,0 l/m 0,0 km/h (0 Bft) O-SO 112 0 min 0,000 mm 0 W/m 13,8 C 16,0 C 1,6 km/h (1 Bft) 100 %
12.07.2014 01:40 16,0 C 16,0 C 16,0 C 87 % 1011,3 hPa 0,0 l/m 0,0 km/h (0 Bft) N 0 0 min 0,000 mm 0 W/m 13,8 C 16,0 C 0,0 km/h (0 Bft) 100 %
12.07.2014 01:50 16,1 C 16,0 C 16,1 C 87 % 1011,3 hPa 0,0 l/m 0,0 km/h (0 Bft) N 0 0 min 0,000 mm 0 W/m 13,9 C 16,1 C 0,0 km/h (0 Bft) 100 %
12.07.2014 02:00 16,2 C 16,1 C 16,2 C 87 % 1011,4 hPa 0,0 l/m 0,0 km/h (0 Bft) W-SW 247 0 min 0,000 mm 0 W/m 14,0 C 16,2 C 6,4 km/h (2 Bft) 100 %
12.07.2014 02:10 16,2 C 16,1 C 16,2 C 87 % 1011,2 hPa 0,0 l/m 0,0 km/h (0 Bft) W-SW 247 0 min 0,000 mm 0 W/m 14,0 C 16,2 C 3,2 km/h (1 Bft) 100 %
12.07.2014 02:20 16,2 C 16,1 C 16,2 C 87 % 1011,2 hPa 0,0 l/m 0,0 km/h (0 Bft) W-SW 247 0 min 0,000 mm 0 W/m 14,0 C 16,2 C 4,8 km/h (1 Bft) 100 %
12.07.2014 02:30 16,1 C 16,1 C 16,2 C 87 % 1011,2 hPa 0,0 l/m 0,0 km/h (0 Bft) W-NW 292 0 min 0,000 mm 0 W/m 13,9 C 16,1 C 4,8 km/h (1 Bft) 100 %
12.07.2014 02:40 15,9 C 15,9 C 16,1 C 87 % 1011,1 hPa 0,0 l/m 0,0 km/h (0 Bft) W-NW 292 0 min 0,000 mm 0 W/m 13,7 C 15,9 C 3,2 km/h (1 Bft) 100 %
12.07.2014 02:50 15,8 C 15,8 C 15,9 C 87 % 1011,0 hPa 0,0 l/m 0,0 km/h (0 Bft) N 0 0 min 0,000 mm 0 W/m 13,6 C 15,8 C 0,0 km/h (0 Bft) 100 %
12.07.2014 03:00 15,6 C 15,6 C 15,8 C 87 % 1011,1 hPa 0,0 l/m 0,0 km/h (0 Bft) W-NW 292 0 min 0,000 mm 0 W/m 13,4 C 15,6 C 4,8 km/h (1 Bft) 100 %
12.07.2014 03:10 15,5 C 15,5 C 15,6 C 87 % 1011,1 hPa 0,0 l/m 0,0 km/h (0 Bft) W-NW 292 0 min 0,000 mm 0 W/m 13,3 C 15,5 C 3,2 km/h (1 Bft) 100 %
12.07.2014 03:20 15,4 C 15,4 C 15,4 C 87 % 1011,1 hPa 0,0 l/m 0,0 km/h (0 Bft) W 270 0 min 0,000 mm 0 W/m 13,2 C 15,4 C 1,6 km/h (1 Bft) 100 %
12.07.2014 03:30 15,5 C 15,4 C 15,5 C 87 % 1011,0 hPa 0,0 l/m 1,6 km/h (1 Bft) W-SW 247 0 min 0,000 mm 0 W/m 13,3 C 15,5 C 6,4 km/h (2 Bft) 100 %
12.07.2014 03:40 15,6 C 15,5 C 15,6 C 87 % 1011,0 hPa 0,0 l/m 1,6 km/h (1 Bft) W-NW 292 0 min 0,000 mm 0 W/m 13,4 C 15,6 C 6,4 km/h (2 Bft) 99 %
12.07.2014 03:50 15,7 C 15,6 C 15,7 C 87 % 1011,1 hPa 0,0 l/m 1,6 km/h (1 Bft) W-NW 292 0 min 0,000 mm 0 W/m 13,5 C 15,7 C 8,0 km/h (2 Bft) 100 %
12.07.2014 04:00 15,8 C 15,7 C 15,8 C 87 % 1011,1 hPa 0,0 l/m 0,0 km/h (0 Bft) W-NW 292 0 min 0,000 mm 0 W/m 13,6 C 15,8 C 3,2 km/h (1 Bft) 99 %
12.07.2014 04:10 15,9 C 15,8 C 15,9 C 87 % 1011,0 hPa 0,0 l/m 0,0 km/h (0 Bft) W-SW 247 0 min 0,000 mm 0 W/m 13,7 C 15,9 C 6,4 km/h (2 Bft) 100 %
12.07.2014 04:20 16,0 C 15,9 C 16,0 C 87 % 1011,0 hPa 0,0 l/m 0,0 km/h (0 Bft) W-SW 247 0 min 0,000 mm 0 W/m 13,8 C 16,0 C 4,8 km/h (1 Bft) 100 %
12.07.2014 04:30 16,1 C 16,0 C 16,1 C 87 % 1011,0 hPa 0,0 l/m 1,6 km/h (1 Bft) W 270 0 min 0,000 mm 0 W/m 13,9 C 16,1 C 6,4 km/h (2 Bft) 100 %
12.07.2014 04:40 16,1 C 16,1 C 16,2 C 87 % 1011,0 hPa 0,0 l/m 3,2 km/h (1 Bft) W 270 0 min 0,000 mm 0 W/m 13,9 C 16,1 C 11,3 km/h (2 Bft) 100 %
12.07.2014 04:50 16,2 C 16,1 C 16,2 C 87 % 1011,1 hPa 0,0 l/m 3,2 km/h (1 Bft) W 270 0 min 0,000 mm 0 W/m 14,0 C 16,2 C 11,3 km/h (2 Bft) 100 %
12.07.2014 05:00 16,2 C 16,2 C 16,2 C 87 % 1011,3 hPa 0,0 l/m 1,6 km/h (1 Bft) W 270 0 min 0,025 mm 0 W/m 14,0 C 16,2 C 9,7 km/h (2 Bft) 100 %
12.07.2014 05:10 16,2 C 16,2 C 16,2 C 87 % 1011,3 hPa 0,0 l/m 4,8 km/h (1 Bft) W 270 0 min 0,000 mm 0 W/m 14,0 C 16,2 C 14,5 km/h (3 Bft) 100 %
12.07.2014 05:20 16,2 C 16,2 C 16,2 C 87 % 1011,2 hPa 0,0 l/m 3,2 km/h (1 Bft) W 270 0 min 0,000 mm 0 W/m 14,0 C 16,2 C 11,3 km/h (2 Bft) 100 %
12.07.2014 05:30 16,3 C 16,2 C 16,3 C 87 % 1011,2 hPa 0,0 l/m 1,6 km/h (1 Bft) W 270 0 min 0,000 mm 0 W/m 14,1 C 16,3 C 11,3 km/h (2 Bft) 100 %
12.07.2014 05:40 16,3 C 16,2 C 16,3 C 87 % 1011,2 hPa 0,0 l/m 3,2 km/h (1 Bft) W 270 0 min 0,000 mm 0 W/m 14,1 C 16,3 C 9,7 km/h (2 Bft) 100 %
12.07.2014 05:50 16,3 C 16,3 C 16,3 C 87 % 1011,1 hPa 0,0 l/m 1,6 km/h (1 Bft) W-NW 292 0 min 0,000 mm 0 W/m 14,1 C 16,3 C 8,0 km/h (2 Bft) 100 %
12.07.2014 06:00 16,3 C 16,2 C 16,3 C 87 % 1011,1 hPa 0,0 l/m 0,0 km/h (0 Bft) W-NW 292 0 min 0,000 mm 9 W/m 14,1 C 16,3 C 6,4 km/h (2 Bft) 100 %
12.07.2014 06:10 16,3 C 16,2 C 16,3 C 87 % 1011,1 hPa 0,0 l/m 0,0 km/h (0 Bft) W-NW 292 0 min 0,000 mm 14 W/m 14,1 C 16,3 C 3,2 km/h (1 Bft) 100 %
12.07.2014 06:20 16,3 C 16,3 C 16,3 C 87 % 1011,1 hPa 0,0 l/m 0,0 km/h (0 Bft) W-NW 292 0 min 0,000 mm 33 W/m 14,1 C 16,3 C 3,2 km/h (1 Bft) 100 %
12.07.2014 06:30 16,3 C 16,3 C 16,3 C 87 % 1011,0 hPa 0,0 l/m 1,6 km/h (1 Bft) W-NW 292 0 min 0,000 mm 42 W/m 14,1 C 16,3 C 4,8 km/h (1 Bft) 100 %
12.07.2014 06:40 16,3 C 16,3 C 16,3 C 87 % 1011,1 hPa 0,0 l/m 1,6 km/h (1 Bft) W-NW 292 0 min 0,000 mm 26 W/m 14,1 C 16,3 C 8,0 km/h (2 Bft) 100 %
12.07.2014 06:50 16,4 C 16,3 C 16,4 C 87 % 1011,0 hPa 0,0 l/m 0,0 km/h (0 Bft) W-NW 292 0 min 0,000 mm 19 W/m 14,2 C 16,4 C 4,8 km/h (1 Bft) 100 %
12.07.2014 07:00 16,4 C 16,4 C 16,4 C 87 % 1011,1 hPa 0,0 l/m 1,6 km/h (1 Bft) W-SW 247 0 min 0,025 mm 35 W/m 14,2 C 16,4 C 9,7 km/h (2 Bft) 100 %
12.07.2014 07:10 16,5 C 16,4 C 16,5 C 87 % 1011,1 hPa 0,0 l/m 0,0 km/h (0 Bft) W 270 0 min 0,000 mm 46 W/m 14,3 C 16,5 C 6,4 km/h (2 Bft) 100 %
12.07.2014 07:20 16,6 C 16,5 C 16,6 C 87 % 1011,1 hPa 0,0 l/m 0,0 km/h (0 Bft) W-NW 292 0 min 0,000 mm 32 W/m 14,4 C 16,6 C 4,8 km/h (1 Bft) 100 %
12.07.2014 07:30 16,6 C 16,6 C 16,6 C 87 % 1011,2 hPa 0,0 l/m 1,6 km/h (1 Bft) W 270 0 min 0,000 mm 56 W/m 14,4 C 16,6 C 8,0 km/h (2 Bft) 100 %
12.07.2014 07:40 16,7 C 16,6 C 16,7 C 87 % 1011,2 hPa 0,0 l/m 1,6 km/h (1 Bft) W 270 0 min 0,000 mm 107 W/m 14,5 C 16,7 C 9,7 km/h (2 Bft) 100 %
12.07.2014 07:50 16,7 C 16,7 C 16,7 C 87 % 1011,1 hPa 0,0 l/m 3,2 km/h (1 Bft) W 270 0 min 0,000 mm 76 W/m 14,5 C 16,7 C 17,7 km/h (3 Bft) 100 %
12.07.2014 08:00 16,7 C 16,7 C 16,7 C 87 % 1011,1 hPa 0,0 l/m 3,2 km/h (1 Bft) W 270 0 min 0,025 mm 60 W/m 14,5 C 16,7 C 9,7 km/h (2 Bft) 100 %
12.07.2014 08:10 16,7 C 16,7 C 16,7 C 87 % 1011,1 hPa 0,0 l/m 1,6 km/h (1 Bft) W-NW 292 0 min 0,000 mm 67 W/m 14,5 C 16,7 C 8,0 km/h (2 Bft) 100 %
12.07.2014 08:20 16,8 C 16,7 C 16,8 C 87 % 1011,2 hPa 0,0 l/m 1,6 km/h (1 Bft) W-NW 292 0 min 0,000 mm 90 W/m 14,6 C 16,8 C 6,4 km/h (2 Bft) 100 %
12.07.2014 08:30 16,9 C 16,8 C 16,9 C 87 % 1011,3 hPa 0,0 l/m 1,6 km/h (1 Bft) W-NW 292 0 min 0,000 mm 105 W/m 14,7 C 16,9 C 8,0 km/h (2 Bft) 100 %
12.07.2014 08:40 17,1 C 16,9 C 17,1 C 87 % 1011,2 hPa 0,0 l/m 1,6 km/h (1 Bft) W 270 0 min 0,000 mm 149 W/m 14,9 C 17,1 C 8,0 km/h (2 Bft) 100 %
12.07.2014 08:50 17,3 C 17,1 C 17,3 C 87 % 1011,2 hPa 0,0 l/m 0,0 km/h (0 Bft) W-NW 292 0 min 0,000 mm 149 W/m 15,1 C 17,3 C 6,4 km/h (2 Bft) 100 %
12.07.2014 09:00 17,3 C 17,3 C 17,3 C 87 % 1011,3 hPa 0,0 l/m 1,6 km/h (1 Bft) W-NW 292 0 min 0,051 mm 134 W/m 15,1 C 17,3 C 9,7 km/h (2 Bft) 99 %
12.07.2014 09:10 17,4 C 17,3 C 17,4 C 87 % 1011,2 hPa 0,0 l/m 1,6 km/h (1 Bft) W-NW 292 0 min 0,000 mm 114 W/m 15,2 C 17,4 C 9,7 km/h (2 Bft) 100 %
12.07.2014 09:20 17,5 C 17,4 C 17,5 C 87 % 1011,3 hPa 0,0 l/m 3,2 km/h (1 Bft) W-NW 292 0 min 0,000 mm 121 W/m 15,3 C 17,5 C 11,3 km/h (2 Bft) 100 %
12.07.2014 09:30 17,6 C 17,5 C 17,6 C 88 % 1011,3 hPa 0,0 l/m 1,6 km/h (1 Bft) W-SW 247 0 min 0,000 mm 107 W/m 15,6 C 17,6 C 8,0 km/h (2 Bft) 100 %
12.07.2014 09:40 17,7 C 17,6 C 17,7 C 88 % 1011,3 hPa 0,0 l/m 1,6 km/h (1 Bft) W 270 0 min 0,000 mm 127 W/m 15,7 C 17,7 C 8,0 km/h (2 Bft) 100 %
12.07.2014 09:50 17,8 C 17,7 C 17,8 C 87 % 1011,4 hPa 0,0 l/m 3,2 km/h (1 Bft) W-NW 292 0 min 0,000 mm 118 W/m 15,6 C 17,8 C 11,3 km/h (2 Bft) 100 %
12.07.2014 10:00 17,9 C 17,8 C 17,9 C 87 % 1011,4 hPa 0,0 l/m 3,2 km/h (1 Bft) W-NW 292 0 min 0,051 mm 113 W/m 15,7 C 17,9 C 8,0 km/h (2 Bft) 100 %
12.07.2014 10:10 17,9 C 17,9 C 17,9 C 87 % 1011,3 hPa 0,0 l/m 3,2 km/h (1 Bft) W-NW 292 0 min 0,000 mm 109 W/m 15,7 C 17,9 C 9,7 km/h (2 Bft) 100 %
12.07.2014 10:20 18,0 C 17,9 C 18,0 C 87 % 1011,4 hPa 0,0 l/m 0,0 km/h (0 Bft) W-NW 292 10 min 0,000 mm 171 W/m 15,8 C 18,0 C 6,4 km/h (2 Bft) 100 %
12.07.2014 10:30 18,2 C 18,0 C 18,2 C 87 % 1011,3 hPa 0,0 l/m 1,6 km/h (1 Bft) W-NW 292 10 min 0,000 mm 218 W/m 16,0 C 18,2 C 8,0 km/h (2 Bft) 100 %
12.07.2014 10:40 18,7 C 18,2 C 18,7 C 87 % 1011,4 hPa 0,0 l/m 0,0 km/h (0 Bft) W 270 10 min 0,000 mm 360 W/m 16,5 C 18,7 C 8,0 km/h (2 Bft) 100 %
12.07.2014 10:50 18,8 C 18,7 C 18,8 C 86 % 1011,3 hPa 0,0 l/m 1,6 km/h (1 Bft) W 270 10 min 0,000 mm 244 W/m 16,4 C 18,8 C 9,7 km/h (2 Bft) 100 %
12.07.2014 11:00 18,7 C 18,7 C 18,8 C 85 % 1011,3 hPa 0,0 l/m 1,6 km/h (1 Bft) W 270 0 min 0,102 mm 95 W/m 16,1 C 18,7 C 8,0 km/h (2 Bft) 99 %
12.07.2014 11:10 18,9 C 18,7 C 18,9 C 86 % 1011,2 hPa 0,0 l/m 0,0 km/h (0 Bft) W 270 10 min 0,000 mm 450 W/m 16,5 C 18,9 C 6,4 km/h (2 Bft) 100 %
12.07.2014 11:20 19,4 C 18,8 C 19,4 C 83 % 1011,0 hPa 0,0 l/m 1,6 km/h (1 Bft) W 270 10 min 0,000 mm 766 W/m 16,4 C 19,4 C 9,7 km/h (2 Bft) 100 %
12.07.2014 11:30 19,8 C 19,4 C 19,8 C 83 % 1011,1 hPa 0,0 l/m 3,2 km/h (1 Bft) W 270 10 min 0,000 mm 320 W/m 16,8 C 19,8 C 16,1 km/h (3 Bft) 100 %
12.07.2014 11:40 20,3 C 19,8 C 20,3 C 83 % 1011,0 hPa 0,0 l/m 3,2 km/h (1 Bft) W-SW 247 10 min 0,000 mm 830 W/m 17,3 C 20,3 C 9,7 km/h (2 Bft) 100 %
12.07.2014 11:50 21,2 C 19,8 C 21,2 C 79 % 1010,9 hPa 0,0 l/m 3,8 km/h (1 Bft) W-NW 296 10 min 0,000 mm 448 W/m 17,4 C 21,2 C 11,3 km/h (2 Bft) 100 %
12.07.2014 12:00 21,4 C 21,2 C 21,4 C 78 % 1010,8 hPa 0,0 l/m 4,3 km/h (1 Bft) W 271 10 min 0,000 mm 387 W/m 17,4 C 21,4 C 17,7 km/h (3 Bft) 100 %
12.07.2014 12:10 21,5 C 21,4 C 21,5 C 76 % 1010,8 hPa 0,0 l/m 5,0 km/h (1 Bft) NW 308 10 min 0,254 mm 316 W/m 17,1 C 21,5 C 16,1 km/h (3 Bft) 100 %
12.07.2014 12:20 21,4 C 21,4 C 21,5 C 76 % 1010,8 hPa 0,0 l/m 5,8 km/h (2 Bft) W 262 10 min 0,000 mm 255 W/m 17,0 C 21,4 C 11,3 km/h (2 Bft) 100 %
12.07.2014 12:30 21,1 C 21,1 C 21,4 C 77 % 1010,8 hPa 0,0 l/m 5,1 km/h (1 Bft) W-NW 288 10 min 0,000 mm 229 W/m 16,9 C 21,1 C 12,9 km/h (3 Bft) 100 %
12.07.2014 12:40 20,8 C 20,8 C 21,1 C 77 % 1010,9 hPa 0,0 l/m 5,5 km/h (1 Bft) W-SW 258 10 min 0,000 mm 343 W/m 16,6 C 20,8 C 16,1 km/h (3 Bft) 100 %
12.07.2014 12:50 20,6 C 20,6 C 20,8 C 78 % 1010,8 hPa 0,0 l/m 9,6 km/h (2 Bft) W-NW 284 10 min 0,000 mm 302 W/m 16,6 C 19,4 C 19,3 km/h (3 Bft) 100 %
12.07.2014 13:00 20,1 C 20,1 C 20,6 C 78 % 1010,8 hPa 0,0 l/m 10,3 km/h (2 Bft) W 261 10 min 0,204 mm 311 W/m 16,1 C 18,7 C 20,9 km/h (4 Bft) 100 %
12.07.2014 13:10 19,8 C 19,8 C 20,1 C 80 % 1010,8 hPa 0,0 l/m 10,9 km/h (2 Bft) W 273 10 min 0,000 mm 385 W/m 16,2 C 18,1 C 20,9 km/h (4 Bft) 99 %
12.07.2014 13:20 19,9 C 19,8 C 19,9 C 81 % 1010,7 hPa 0,0 l/m 8,0 km/h (2 Bft) W-SW 238 10 min 0,000 mm 545 W/m 16,5 C 19,2 C 22,5 km/h (4 Bft) 100 %
12.07.2014 13:30 20,2 C 19,9 C 20,2 C 83 % 1010,5 hPa 0,0 l/m 7,2 km/h (2 Bft) W 259 10 min 0,000 mm 789 W/m 17,2 C 19,9 C 19,3 km/h (3 Bft) 100 %
12.07.2014 13:40 20,9 C 20,2 C 20,9 C 81 % 1010,4 hPa 0,0 l/m 8,8 km/h (2 Bft) W-SW 245 10 min 0,000 mm 872 W/m 17,5 C 20,0 C 20,9 km/h (4 Bft) 100 %
12.07.2014 13:50 21,4 C 20,9 C 21,4 C 78 % 1010,4 hPa 0,0 l/m 10,1 km/h (2 Bft) W 277 10 min 0,000 mm 888 W/m 17,4 C 20,2 C 22,5 km/h (4 Bft) 100 %
12.07.2014 14:00 21,9 C 21,4 C 21,9 C 76 % 1010,6 hPa 0,0 l/m 7,5 km/h (2 Bft) W-SW 258 10 min 0,406 mm 420 W/m 17,5 C 21,5 C 17,7 km/h (3 Bft) 100 %
12.07.2014 14:10 22,3 C 21,9 C 22,3 C 76 % 1010,5 hPa 0,0 l/m 8,0 km/h (2 Bft) W-SW 257 10 min 0,000 mm 898 W/m 17,9 C 21,8 C 20,9 km/h (4 Bft) 99 %
12.07.2014 14:20 22,6 C 22,3 C 22,6 C 73 % 1010,3 hPa 0,0 l/m 7,7 km/h (2 Bft) W 265 10 min 0,000 mm 865 W/m 17,5 C 22,2 C 19,3 km/h (3 Bft) 100 %
12.07.2014 14:30 22,3 C 22,3 C 22,6 C 72 % 1010,3 hPa 0,0 l/m 7,8 km/h (2 Bft) NW 307 0 min 0,000 mm 151 W/m 17,0 C 21,8 C 19,3 km/h (3 Bft) 100 %
12.07.2014 14:40 21,2 C 21,2 C 22,3 C 77 % 1010,6 hPa 0,6 l/m 10,1 km/h (2 Bft) NW 319 0 min 0,000 mm 79 W/m 17,0 C 19,9 C 25,7 km/h (4 Bft) 100 %
12.07.2014 14:50 19,6 C 19,6 C 21,2 C 81 % 1010,6 hPa 0,8 l/m 2,9 km/h (1 Bft) N-NW 341 0 min 0,000 mm 102 W/m 16,2 C 19,6 C 17,7 km/h (3 Bft) 100 %
12.07.2014 15:00 18,6 C 18,6 C 19,6 C 84 % 1010,6 hPa 0,2 l/m 0,0 km/h (0 Bft) N-NW 341 0 min 0,229 mm 132 W/m 15,8 C 18,6 C 1,6 km/h (1 Bft) 100 %
12.07.2014 15:10 18,1 C 18,1 C 18,6 C 86 % 1010,7 hPa 0,0 l/m 0,0 km/h (0 Bft) O 88 0 min 0,000 mm 128 W/m 15,7 C 18,1 C 1,6 km/h (1 Bft) 100 %
12.07.2014 15:20 18,0 C 18,0 C 18,1 C 86 % 1010,5 hPa 0,0 l/m 0,5 km/h (0 Bft) SW 217 0 min 0,000 mm 130 W/m 15,6 C 18,0 C 6,4 km/h (2 Bft) 100 %
12.07.2014 15:30 17,8 C 17,8 C 18,0 C 86 % 1010,3 hPa 0,2 l/m 0,0 km/h (0 Bft) S-SW 205 10 min 0,000 mm 153 W/m 15,4 C 17,8 C 1,6 km/h (1 Bft) 100 %
12.07.2014 15:40 17,8 C 17,7 C 17,8 C 87 % 1010,4 hPa 0,0 l/m 0,3 km/h (0 Bft) S-SO 160 10 min 0,000 mm 366 W/m 15,6 C 17,8 C 6,4 km/h (2 Bft) 100 %
12.07.2014 15:50 18,1 C 17,8 C 18,1 C 87 % 1010,4 hPa 0,0 l/m 0,0 km/h (0 Bft) S-SO 160 10 min 0,000 mm 441 W/m 15,9 C 18,1 C 1,6 km/h (1 Bft) 100 %
12.07.2014 16:00 18,7 C 18,1 C 18,7 C 83 % 1010,4 hPa 0,0 l/m 0,0 km/h (0 Bft) S 189 10 min 0,152 mm 772 W/m 15,8 C 18,7 C 1,6 km/h (1 Bft) 100 %
12.07.2014 16:10 19,6 C 18,7 C 19,6 C 83 % 1010,3 hPa 0,0 l/m 1,4 km/h (1 Bft) S-SO 159 10 min 0,000 mm 821 W/m 16,6 C 19,6 C 9,7 km/h (2 Bft) 100 %
12.07.2014 16:20 20,2 C 19,6 C 20,2 C 81 % 1010,4 hPa 0,0 l/m 3,7 km/h (1 Bft) S-SW 206 10 min 0,000 mm 548 W/m 16,8 C 20,2 C 11,3 km/h (2 Bft) 100 %
12.07.2014 16:30 20,4 C 20,2 C 20,4 C 77 % 1010,1 hPa 0,0 l/m 2,2 km/h (1 Bft) S 174 10 min 0,000 mm 585 W/m 16,2 C 20,4 C 8,0 km/h (2 Bft) 100 %
12.07.2014 16:40 20,6 C 20,4 C 20,6 C 76 % 1010,2 hPa 0,0 l/m 1,3 km/h (1 Bft) S-SO 155 10 min 0,000 mm 563 W/m 16,2 C 20,6 C 6,4 km/h (2 Bft) 100 %
12.07.2014 16:50 20,7 C 20,6 C 20,7 C 82 % 1010,2 hPa 0,0 l/m 3,7 km/h (1 Bft) S-SW 194 10 min 0,000 mm 506 W/m 17,5 C 20,7 C 11,3 km/h (2 Bft) 100 %
12.07.2014 17:00 21,0 C 20,7 C 21,0 C 76 % 1009,9 hPa 0,0 l/m 3,6 km/h (1 Bft) S-SW 194 10 min 0,305 mm 250 W/m 16,6 C 21,0 C 9,7 km/h (2 Bft) 100 %
12.07.2014 17:10 20,6 C 20,6 C 21,0 C 80 % 1010,2 hPa 0,0 l/m 4,9 km/h (1 Bft) S-SO 166 0 min 0,000 mm 95 W/m 17,0 C 20,6 C 11,3 km/h (2 Bft) 100 %
12.07.2014 17:20 19,8 C 19,8 C 20,6 C 84 % 1010,0 hPa 0,0 l/m 5,1 km/h (1 Bft) S-SW 213 10 min 0,000 mm 167 W/m 17,0 C 19,8 C 16,1 km/h (3 Bft) 100 %
12.07.2014 17:30 19,4 C 19,4 C 19,8 C 85 % 1010,1 hPa 0,0 l/m 1,2 km/h (1 Bft) S-SW 192 10 min 0,000 mm 221 W/m 16,8 C 19,4 C 6,4 km/h (2 Bft) 100 %
12.07.2014 17:40 19,0 C 19,0 C 19,4 C 84 % 1009,8 hPa 0,0 l/m 4,3 km/h (1 Bft) S-SO 165 10 min 0,000 mm 216 W/m 16,2 C 19,0 C 9,7 km/h (2 Bft) 100 %
12.07.2014 17:50 18,7 C 18,7 C 19,0 C 85 % 1010,3 hPa 0,0 l/m 2,6 km/h (1 Bft) S-SO 153 10 min 0,000 mm 258 W/m 16,1 C 18,7 C 8,0 km/h (2 Bft) 100 %
12.07.2014 18:00 19,0 C 18,7 C 19,0 C 86 % 1010,2 hPa 0,0 l/m 1,5 km/h (1 Bft) S-SW 204 10 min 0,127 mm 506 W/m 16,6 C 19,0 C 8,0 km/h (2 Bft) 100 %
12.07.2014 18:10 19,6 C 19,0 C 19,6 C 83 % 1010,2 hPa 0,0 l/m 2,1 km/h (1 Bft) W-SW 242 10 min 0,000 mm 410 W/m 16,6 C 19,6 C 8,0 km/h (2 Bft) 100 %
12.07.2014 18:20 19,9 C 19,6 C 19,9 C 82 % 1010,2 hPa 0,0 l/m 1,1 km/h (1 Bft) SW 232 10 min 0,000 mm 292 W/m 16,7 C 19,9 C 4,8 km/h (1 Bft) 100 %
12.07.2014 18:30 20,3 C 19,9 C 20,3 C 83 % 1010,2 hPa 0,0 l/m 1,4 km/h (1 Bft) W-SW 250 10 min 0,000 mm 301 W/m 17,3 C 20,3 C 8,0 km/h (2 Bft) 100 %
12.07.2014 18:40 20,6 C 20,3 C 20,6 C 82 % 1010,1 hPa 0,0 l/m 3,9 km/h (1 Bft) W-NW 297 0 min 0,000 mm 146 W/m 17,4 C 20,6 C 9,7 km/h (2 Bft) 100 %
12.07.2014 18:50 20,7 C 20,6 C 20,7 C 83 % 1010,2 hPa 0,0 l/m 5,6 km/h (1 Bft) NW 315 0 min 0,000 mm 98 W/m 17,7 C 20,7 C 14,5 km/h (3 Bft) 100 %
12.07.2014 19:00 20,6 C 20,6 C 20,8 C 78 % 1010,1 hPa 0,0 l/m 2,3 km/h (1 Bft) N-NW 335 0 min 0,127 mm 19 W/m 16,6 C 20,6 C 8,0 km/h (2 Bft) 100 %
12.07.2014 19:10 19,9 C 19,9 C 20,6 C 74 % 1010,2 hPa 0,0 l/m 0,5 km/h (0 Bft) NW 325 0 min 0,000 mm 98 W/m 15,1 C 19,9 C 8,0 km/h (2 Bft) 100 %
12.07.2014 19:20 19,3 C 19,3 C 19,9 C 74 % 1010,4 hPa 0,0 l/m 0,2 km/h (0 Bft) W-SW 257 0 min 0,000 mm 84 W/m 14,5 C 19,3 C 4,8 km/h (1 Bft) 100 %
12.07.2014 19:30 19,1 C 19,1 C 19,3 C 77 % 1010,5 hPa 0,0 l/m 0,5 km/h (0 Bft) SO 136 0 min 0,000 mm 42 W/m 15,0 C 19,1 C 8,0 km/h (2 Bft) 100 %
12.07.2014 19:40 18,8 C 18,8 C 19,1 C 79 % 1010,5 hPa 0,0 l/m 1,8 km/h (1 Bft) O-SO 110 0 min 0,000 mm 47 W/m 15,1 C 18,8 C 8,0 km/h (2 Bft) 100 %
12.07.2014 19:50 18,6 C 18,6 C 18,8 C 79 % 1010,8 hPa 0,0 l/m 0,4 km/h (0 Bft) SO 138 0 min 0,000 mm 26 W/m 14,9 C 18,6 C 6,4 km/h (2 Bft) 100 %
12.07.2014 20:00 18,6 C 18,5 C 18,6 C 82 % 1010,8 hPa 0,0 l/m 0,1 km/h (0 Bft) SO 138 0 min 0,025 mm 44 W/m 15,5 C 18,6 C 3,2 km/h (1 Bft) 100 %
12.07.2014 20:10 18,5 C 18,5 C 18,6 C 85 % 1010,7 hPa 0,0 l/m 1,4 km/h (1 Bft) S-SW 213 0 min 0,000 mm 58 W/m 15,9 C 18,5 C 6,4 km/h (2 Bft) 100 %
12.07.2014 20:20 18,4 C 18,4 C 18,5 C 85 % 1010,7 hPa 0,0 l/m 0,6 km/h (0 Bft) S-SO 164 0 min 0,000 mm 67 W/m 15,8 C 18,4 C 8,0 km/h (2 Bft) 100 %
12.07.2014 20:30 18,6 C 18,4 C 18,6 C 86 % 1010,7 hPa 0,0 l/m 0,5 km/h (0 Bft) W-SW 248 0 min 0,000 mm 69 W/m 16,2 C 18,6 C 8,0 km/h (2 Bft) 100 %
12.07.2014 20:40 18,6 C 18,6 C 18,7 C 85 % 1010,7 hPa 0,0 l/m 0,8 km/h (0 Bft) W 267 0 min 0,000 mm 51 W/m 16,0 C 18,6 C 6,4 km/h (2 Bft) 100 %
12.07.2014 20:50 18,7 C 18,6 C 18,7 C 85 % 1010,8 hPa 0,0 l/m 0,0 km/h (0 Bft) W 267 0 min 0,000 mm 32 W/m 16,1 C 18,7 C 1,6 km/h (1 Bft) 99 %
12.07.2014 21:00 18,7 C 18,7 C 18,8 C 85 % 1010,8 hPa 0,0 l/m 0,9 km/h (0 Bft) W-SW 247 0 min 0,000 mm 23 W/m 16,1 C 18,7 C 6,4 km/h (2 Bft) 100 %
12.07.2014 21:10 18,7 C 18,7 C 18,7 C 85 % 1011,0 hPa 0,0 l/m 1,6 km/h (1 Bft) W-SW 247 0 min 0,000 mm 21 W/m 16,1 C 18,7 C 6,4 km/h (2 Bft) 100 %
12.07.2014 21:20 18,6 C 18,6 C 18,7 C 86 % 1010,8 hPa 0,0 l/m 1,6 km/h (1 Bft) W 270 0 min 0,000 mm 7 W/m 16,2 C 18,6 C 8,0 km/h (2 Bft) 100 %
12.07.2014 21:30 18,5 C 18,5 C 18,6 C 86 % 1010,9 hPa 0,0 l/m 1,6 km/h (1 Bft) W 270 0 min 0,000 mm 0 W/m 16,1 C 18,5 C 8,0 km/h (2 Bft) 100 %
12.07.2014 21:40 18,4 C 18,4 C 18,5 C 86 % 1011,0 hPa 0,0 l/m 1,6 km/h (1 Bft) W 270 0 min 0,000 mm 0 W/m 16,0 C 18,4 C 6,4 km/h (2 Bft) 100 %
12.07.2014 21:50 18,3 C 18,3 C 18,4 C 86 % 1011,0 hPa 0,0 l/m 3,2 km/h (1 Bft) W 270 0 min 0,000 mm 0 W/m 15,9 C 18,3 C 9,7 km/h (2 Bft) 100 %
12.07.2014 22:00 18,2 C 18,2 C 18,3 C 86 % 1011,1 hPa 0,2 l/m 1,6 km/h (1 Bft) W 270 0 min 0,000 mm 0 W/m 15,8 C 18,2 C 8,0 km/h (2 Bft) 100 %
12.07.2014 22:10 18,0 C 18,0 C 18,2 C 87 % 1011,0 hPa 0,0 l/m 3,2 km/h (1 Bft) W 270 0 min 0,000 mm 0 W/m 15,8 C 18,0 C 11,3 km/h (2 Bft) 100 %
12.07.2014 22:20 17,8 C 17,8 C 18,0 C 86 % 1011,2 hPa 0,0 l/m 3,2 km/h (1 Bft) W 270 0 min 0,000 mm 0 W/m 15,4 C 17,8 C 11,3 km/h (2 Bft) 100 %
12.07.2014 22:30 17,7 C 17,7 C 17,8 C 87 % 1011,1 hPa 0,0 l/m 1,6 km/h (1 Bft) W 270 0 min 0,000 mm 0 W/m 15,5 C 17,7 C 9,7 km/h (2 Bft) 100 %
12.07.2014 22:40 17,6 C 17,6 C 17,7 C 87 % 1011,1 hPa 0,0 l/m 1,6 km/h (1 Bft) W-SW 247 0 min 0,000 mm 0 W/m 15,4 C 17,6 C 6,4 km/h (2 Bft) 100 %
12.07.2014 22:50 17,4 C 17,4 C 17,6 C 87 % 1011,2 hPa 0,0 l/m 1,6 km/h (1 Bft) W-SW 247 0 min 0,000 mm 0 W/m 15,2 C 17,4 C 8,0 km/h (2 Bft) 100 %
12.07.2014 23:00 17,3 C 17,3 C 17,4 C 87 % 1011,1 hPa 0,0 l/m 1,6 km/h (1 Bft) W-SW 247 0 min 0,025 mm 0 W/m 15,1 C 17,3 C 11,3 km/h (2 Bft) 100 %
12.07.2014 23:10 17,2 C 17,2 C 17,3 C 87 % 1011,4 hPa 0,0 l/m 1,6 km/h (1 Bft) W 270 0 min 0,000 mm 0 W/m 15,0 C 17,2 C 8,0 km/h (2 Bft) 100 %
12.07.2014 23:20 16,9 C 16,9 C 17,2 C 87 % 1011,3 hPa 0,0 l/m 3,2 km/h (1 Bft) SW 225 0 min 0,000 mm 0 W/m 14,7 C 16,9 C 8,0 km/h (2 Bft) 100 %
12.07.2014 23:30 16,8 C 16,8 C 16,9 C 87 % 1011,3 hPa 0,0 l/m 1,6 km/h (1 Bft) W-SW 247 0 min 0,000 mm 0 W/m 14,6 C 16,8 C 8,0 km/h (2 Bft) 100 %
12.07.2014 23:40 16,7 C 16,7 C 16,8 C 87 % 1011,3 hPa 0,0 l/m 1,6 km/h (1 Bft) SW 225 0 min 0,000 mm 0 W/m 14,5 C 16,7 C 8,0 km/h (2 Bft) 100 %
12.07.2014 23:50 16,7 C 16,7 C 16,7 C 87 % 1011,3 hPa 0,0 l/m 1,6 km/h (1 Bft) W-SW 247 0 min 0,000 mm 0 W/m 14,5 C 16,7 C 11,3 km/h (2 Bft) 99 %
_ Min-Zeit 03:20 03:20 03:20 14:30 17:40 - 00:00 - - - - - 03:20 03:20 00:40 01:00
Minimum _ 15,4 C 15,4 C 15,4 C 72 % 1009,8 hPa - 0,0 km/h (0 Bft) - - - - - 13,2 C 15,4 C 0,0 km/h (0 Bft) 99 %
_ Max-Zeit 14:20 14:20 14:20 09:30 00:40 14:50 13:10 - - 10:20 14:00 14:10 14:10 14:20 14:40 00:00
Maximum _ 22,6 C 22,3 C 22,6 C 88 % 1011,6 hPa 0,8 l/m 10,9 km/h
W (2 Bft)
- - 10 min 0,406 mm 898 W/m 17,9 C 22,2 C 25,7 km/h
NW (4 Bft)
100 %
Durchschnitt _ 18,1 C 17,9 C 18,2 C 84 % 1010,9 hPa #2,0 l/m 2,2 km/h (1 Bft) W - #7:00 h #2,133 mm 246 W/m 15,4 C 18,0 C 8,5 km/h (2 Bft) 100 %
PRIVATE WETTERSTATION BILLIGHEIM-ALLFELD - www.neckar-odenwald-wetter.de - Holger Sonntag